Home   Weather   Dąbrowa Górnicza   Past weeks

Flag for Poland Past Weather in Dąbrowa Górnicza, Poland — Yesterday and Last 2 Weeks

Now
46 °F

Fog.


Feels Like: 46 °F
Forecast: 55 / 69 °F
Wind: 1 mph from North

Location: Katowice Airport

Current Time: Sep 28, 2016 at 9:05:59 AM

Latest Report: Sep 28, 2016 at 8:30 AM


Visibility: 1 mi

Pressure: 30.30 "Hg

Humidity: 93%

Dew Point: 45 °F

Location of Dąbrowa GórniczaLocation

Past Weather in Dąbrowa Górnicza — Graph

°F

Dąbrowa Górnicza Temperature Yesterday

Maximum temperature yesterday: 64 °F (at 2:00 PM)
Minimum temperature yesterday: 36 °F (at 6:30 AM)
Average temperature yesterday: 50 °F

High & Low Weather Summary for the Past Weeks

 TemperatureHumidityPressure
High82 °F (Sep 13, 1:00 PM)100% (Sep 14, 3:00 AM)30.36 "Hg (Sep 14, 3:00 AM)
Low32 °F (Sep 22, 6:00 AM)31% (Sep 14, 2:30 PM)29.83 "Hg (Sep 17, 5:00 AM)
Average54 °F81%30.09 "Hg
* Reported Sep 13 8:00 AM — Sep 28 8:00 AM, Dąbrowa Górnicza, Weather by CustomWeather, © 2016

Note: Actual official high and low records may vary slightly from our data, if they occured in-between our weather recording intervals... More about our weather records

Advertising

Dąbrowa Górnicza Weather History for the Previous 24 Hours

Scroll right to see more
 ConditionsComfort  
Time TempWeatherWind HumidityBarometerVisibility
8:00 AM
Wed, Sep 28
45 °FQuite cool.2 mph100%30.30 "Hg1 mi
7:30 AM43 °FQuite cool.5 mph100%30.30 "Hg1 mi
7:00 AM41 °FQuite cool.5 mph100%30.30 "Hg1 mi
6:30 AM39 °FChilly.5 mph100%30.30 "Hg1 mi
6:00 AM39 °FChilly.6 mph100%30.30 "Hg1 mi
5:30 AM41 °FQuite cool.5 mph100%30.30 "Hg1 mi
5:00 AM41 °FFog.3 mph100%30.30 "Hg1 mi
4:30 AM39 °FChilly.6 mph93%30.33 "Hg1 mi
4:00 AM37 °FChilly.5 mph100%30.33 "Hg1 mi
3:30 AM37 °FChilly.5 mph100%30.33 "Hg2 mi
3:00 AM37 °FChilly.5 mph93%30.33 "Hg2 mi
2:30 AM39 °FChilly.6 mph93%30.33 "Hg1 mi
2:00 AM39 °FChilly.3 mph100%30.33 "Hg2 mi
1:30 AM39 °FChilly.2 mph100%30.33 "Hg1 mi
1:00 AM39 °FChilly.2 mph100%30.33 "Hg2 mi
12:30 AM39 °FChilly.1 mph100%30.33 "Hg2 mi
12:00 AM39 °FFog.2 mph100%30.36 "Hg2 mi
11:30 PM
Tue, Sep 27
41 °FQuite cool.2 mph93%30.36 "Hg1 mi
11:00 PM43 °FFog.3 mph100%30.36 "Hg3 mi
10:30 PM43 °FQuite cool.5 mph100%30.36 "Hg4 mi
10:00 PM43 °FFog.2 mph100%30.36 "Hg4 mi
9:30 PM43 °FFog.5 mph93%30.36 "Hg4 mi
9:00 PM46 °FClear.6 mph93%30.33 "Hg4 mi
8:30 PM46 °FClear.6 mph93%30.33 "Hg4 mi
8:00 PM46 °FClear.5 mph93%30.33 "Hg5 mi
7:30 PM50 °FClear.3 mph88%30.33 "Hg10 mi
7:00 PM52 °FClear.3 mph88%30.33 "Hg10 mi
6:30 PM55 °FPassing clouds.3 mph77%30.33 "HgN/A
6:00 PM59 °FSunny.3 mph68%30.30 "Hg10 mi
5:30 PM61 °FSunny.5 mph59%30.30 "Hg10 mi
5:00 PM63 °FPassing clouds.3 mph52%30.30 "HgN/A
4:30 PM63 °FPassing clouds.3 mph52%30.30 "HgN/A
4:00 PM64 °FPassing clouds.5 mph49%30.30 "HgN/A
3:30 PM63 °FPassing clouds.3 mph52%30.30 "HgN/A
3:00 PM63 °FScattered clouds.7 mph52%30.30 "HgN/A
2:30 PM63 °FPassing clouds.6 mph52%30.30 "HgN/A
2:00 PM64 °FScattered clouds.3 mph52%30.30 "HgN/A
1:30 PM61 °FScattered clouds.3 mph59%30.30 "HgN/A
1:00 PM63 °FPassing clouds.5 mph56%30.30 "HgN/A
12:30 PM63 °FPassing clouds.3 mph52%30.30 "HgN/A
12:00 PM59 °FPassing clouds.5 mph59%30.30 "HgN/A
11:30 AM59 °FSunny.3 mph68%30.30 "Hg10 mi
11:00 AM57 °FPassing clouds.6 mph72%30.30 "HgN/A
10:30 AM57 °FPassing clouds.5 mph72%30.30 "HgN/A
10:00 AM54 °FPassing clouds.5 mph77%30.30 "HgN/A
9:30 AM52 °FPassing clouds.3 mph82%30.30 "HgN/A
9:00 AM48 °FClear.7 mph87%30.30 "Hg5 mi
Weather by CustomWeather, © 2016

See weather overviewHow to use our weather pages